Regional Weather Roundup
Issued by NWS Upton, NY

Current Version | Previous Version | Graphics & Text | Print | Product List | Glossary Off
Versions: 1 2 3 4 5 6 7 8 9 10 11 12 13 14 15 16 17 18 19 20 21 22 23 24 25 26 27 28 29 30 31 32 33 34 35 36 37 38 39 40 41 42 43 44 45 46 47 48 49 50

000
ASUS41 KOKX 111905
RWROKX

REGIONAL WEATHER ROUNDUP
NATIONAL WEATHER SERVICE NEW YORK NY
300 PM EDT FRI JUL 11 2014

NOTE: "FAIR" INDICATES FEW OR NO CLOUDS BELOW 12,000 FEET WITH NO
SIGNIFICANT WEATHER AND/OR OBSTRUCTIONS TO VISIBILITY.

NYZ071-072-176-178-NJZ106-104-112000-
NEW YORK CITY METRO AREA


CITY           SKY/WX    TMP DP  RH WIND       PRES   REMARKS
CENTRAL PARK   SUNNY     85  56  37 N7        30.21S
LAGUARDIA APRT PTSUNNY   81  55  40 NE9       30.17F
KENNEDY INTL   MOSUNNY   82  62  50 S10       30.19S
NEWARK/LIBERTY PTSUNNY   83  55  38 E6        30.17S
BRNX BOT. GARD   N/A     81  57  44 E8        30.21R
TETERBORO      CLOUDY    84  57  39 SE6       30.16S
$$

NYZ177-179-078>081-112000-
LONG ISLAND NEW YORK

CITY           SKY/WX    TMP DP  RH WIND       PRES   REMARKS
FARMINGDALE    PTSUNNY   80  64  58 S9        30.18S
ISLIP          MOSUNNY   82  63  52 SE13      30.17R
SHIRLEY        SUNNY     81  61  50 SE14      30.19R
WESTHAMPTON    SUNNY     77  62  59 E12       30.20S
MONTAUK POINT    N/A     79  62  56 VRB3      30.20S
$$

NYZ052-065-067-112000-
HUDSON VALLEY

CITY           SKY/WX    TMP DP  RH WIND       PRES   REMARKS
WHITE PLAINS   MOSUNNY   81  56  42 CALM      30.19S
NEWBURGH       MOSUNNY   79  54  41 VRB6      30.22S
MONTGOMERY     SUNNY     82  57  42 SW7       30.20S
POUGHKEEPSIE   SUNNY     82  53  36 NW6       30.19S
ALBANY         MOSUNNY   78  53  41 N3        30.21F
$$

NJZ001-105-106-008-010-013-015-019>022-104-112000-
NEW JERSEY

CITY           SKY/WX    TMP DP  RH WIND       PRES   REMARKS
NEWARK/LIBERTY PTSUNNY   83  55  38 E6        30.17S
TETERBORO      CLOUDY    84  57  39 SE6       30.16S
CALDWELL       SUNNY     84  59  42 CALM      30.19S
MORRISTOWN     MOSUNNY   84  55  37 CALM      30.19S
SOMERVILLE     SUNNY     85  60  42 VRB5      30.17S
LINDEN         MOCLDY    86  55  34 S8        30.19S
SUSSEX         SUNNY     83  57  41 CALM      30.20F
ANDOVER          N/A     82  56  40 CALM      30.21S
TRENTON        MOSUNNY   84  58  40 VRB3      30.18S
MILLVILLE      PTSUNNY   82  65  56 E5        30.17S
ATLANTIC CITY  SUNNY     82  64  54 E10       30.18S
WRIGHTSTOWN    SUNNY     86  58  39 N7        30.15F
TOMS RIVER     SUNNY     82  61  47 E7        30.19S
BELMAR         SUNNY     81  57  44 E10       30.19S
$$

PAZ047>061-062-071-112000-
EASTERN PENNSYLVANIA

CITY           SKY/WX    TMP DP  RH WIND       PRES   REMARKS
PHILADELPHIA   MOSUNNY   89  58  34 E6        30.17S
ALLENTOWN      SUNNY     84  60  44 N7        30.19F
SCRANTON       MOSUNNY   83  58  42 N6        30.22S
$$

CTZ002-004>006-009-010-012-RIZ004-006-007-MAZ004-011-015-112000-
SOUTHERN NEW ENGLAND
 IN CT

CITY           SKY/WX    TMP DP  RH WIND       PRES   REMARKS
BRADLEY INTL   MOSUNNY   84  53  34 W6        30.17F
HARTFORD       SUNNY     81  52  36 VRB7      30.17F
DANBURY        MOSUNNY   80  51  36 NW7       30.21S
WTRBRY/OXFORD  NOT AVBL
BRIDGEPORT     SUNNY     79  60  52 S8        30.18S
MERIDEN        MOSUNNY   83  55  38 N5        30.18S
NEW HAVEN      MOSUNNY   82  60  47 SE9       30.18F
CHESTER        FAIR      81  61  50 SW7       30.20S
GROTON         SUNNY     74  61  63 SE12      30.18S
WILLIMANTIC    PTSUNNY   84  54  35 N6        30.18S

 IN RI

CITY           SKY/WX    TMP DP  RH WIND       PRES   REMARKS
PROVIDENCE     PTSUNNY   80  58  46 S6        30.17F
BLOCK ISLAND   SUNNY     73  61  64 SE9       30.20S
WESTERLY       SUNNY     78  59  51 S10       30.19S

 IN MA

CITY           SKY/WX    TMP DP  RH WIND       PRES   REMARKS
BOSTON         MOSUNNY   71  55  56 E8        30.21S
WORCESTER      PTSUNNY   76  53  44 CALM      30.21F
WESTFIELD      NOT AVBL
PROVINCETOWN   SUNNY     72  61  68 NE9       30.21S
NANTUCKET      MOSUNNY   76  60  57 SE6       30.18F
$$

ANZ330-335-338-340-345-350-353-355-112000-
COASTAL MARINE OBSERVATIONS


STATION/POSITION TIME  SKY/WX   TEMP    WIND        PRES    VSBY  WAVE
                                AIR SEA DIR/SP/G                  HT/PER
                 (UTC)          (F)     (DEG/KT/KT) (MB)    (MI)  (FT/S)
NY HARB ENTRANCE NOT AVBL
4S FIRE IS       1800               70                N/A           2/ 7
23SW MTP         1900            66 67              1021.9          2/ 7
HUDSON CANYON    1900            70 71   30/ 10/ 12 1021.5          2/ 6
EXECUTION ROCKS  1900            75 70   70/  6/  6   N/A
WESTERN LI SOUND 1900            75      90/  4/  6   N/A           0
CENTRAL LI SOUND 1800            74 72  140/  4/  6   N/A           0
EASTERN LI SOUND 1800            68 65  160/  6/  8   N/A
ROBBINS REEF     1900            74     170/ 14/ 15   N/A
$$


>>>>>>>>>>>>>>>>>>>>>>>>>>>> KEY <<<<<<<<<<<<<<<<<<<<<<<<<<<
>                                                          <
>     SKY/WX - SKY CONDITION/PRESENT WEATHER               <
>     TMP    - TEMPERATURE IN FAHRENHEIT                   <
>     DP     - DEWPOINT IN FAHRENHEIT                      <
>     RH     - RELATIVE HUMIDITY IN PERCENT                <
>     WIND   - DIRECTION AND SPEED IN MPH                  <
>     PRES   - MEAN SEA LEVEL PRESSURE IN INCHES OF HG     <
>     WCI    - WIND CHILL INDEX                            <
>     VSB    - VISIBILITY IN MILES                         <
>     HX     - HEAT INDEX                                  <
>     TC     - TEMPERATURE IN CELSIUS                      <
>     VRB    - VARIABLE WIND DIRECTION                     <
>                                                          <
>>>>>>>>>>>>>>>>>>>>>>>>>>>> KEY <<<<<<<<<<<<<<<<<<<<<<<<<<<





USA.gov is the U.S. government's official web portal to all federal, state and local government web resources and services.